Year,Month,Day,Hour,Minute,Value (Times are PST for windspeed in km/hr)
2008,10,08,00,00,1.10
2008,10,08,00,01,3.30
2008,10,08,00,02,4.30
2008,10,08,00,03,3.20
2008,10,08,00,04,0.50
2008,10,08,00,05,0.00
2008,10,08,00,06,0.00
2008,10,08,00,07,0.00
2008,10,08,00,08,0.10
2008,10,08,00,09,1.40
2008,10,08,00,10,0.40
2008,10,08,00,11,1.90
2008,10,08,00,12,2.20
2008,10,08,00,13,2.00
2008,10,08,00,14,2.10
2008,10,08,00,15,3.70
2008,10,08,00,16,1.40
2008,10,08,00,17,3.80
2008,10,08,00,18,1.30
2008,10,08,00,19,0.30
2008,10,08,00,20,0.60
2008,10,08,00,21,0.40
2008,10,08,00,22,0.40
2008,10,08,00,23,0.30
2008,10,08,00,24,0.10
2008,10,08,00,25,0.00
2008,10,08,00,26,0.70
2008,10,08,00,27,0.80
2008,10,08,00,28,2.40
2008,10,08,00,29,2.60
2008,10,08,00,30,0.30
2008,10,08,00,31,1.20
2008,10,08,00,32,0.20
2008,10,08,00,33,0.20
2008,10,08,00,34,0.20
2008,10,08,00,35,0.60
2008,10,08,00,36,0.00
2008,10,08,00,37,0.00
2008,10,08,00,38,1.10
2008,10,08,00,39,0.30
2008,10,08,00,40,1.30
2008,10,08,00,41,0.40
2008,10,08,00,42,0.90
2008,10,08,00,43,0.00
2008,10,08,00,44,0.00
2008,10,08,00,45,0.00
2008,10,08,00,46,0.00
2008,10,08,00,47,2.00
2008,10,08,00,48,0.50
2008,10,08,00,49,0.10
2008,10,08,00,50,0.30
2008,10,08,00,51,0.90
2008,10,08,00,52,0.90
2008,10,08,00,53,0.30
2008,10,08,00,54,0.40
2008,10,08,00,55,0.00
2008,10,08,00,56,0.00
2008,10,08,00,57,0.00
2008,10,08,00,58,0.00
2008,10,08,00,59,0.00
2008,10,08,01,00,0.00
2008,10,08,01,01,0.00
2008,10,08,01,02,0.00
2008,10,08,01,03,0.00
2008,10,08,01,04,0.00
2008,10,08,01,05,0.00
2008,10,08,01,06,0.00
2008,10,08,01,07,0.00
2008,10,08,01,08,0.70
2008,10,08,01,09,1.50
2008,10,08,01,10,0.30
2008,10,08,01,11,0.00
2008,10,08,01,12,0.00
2008,10,08,01,13,0.00
2008,10,08,01,14,0.00
2008,10,08,01,15,0.90
2008,10,08,01,16,0.00
2008,10,08,01,17,0.00
2008,10,08,01,18,0.00
2008,10,08,01,19,0.00
2008,10,08,01,20,0.00
2008,10,08,01,21,0.10
2008,10,08,01,22,0.00
2008,10,08,01,23,0.00
2008,10,08,01,24,0.40
2008,10,08,01,25,0.30
2008,10,08,01,26,0.00
2008,10,08,01,27,0.00
2008,10,08,01,28,0.00
2008,10,08,01,29,0.20
2008,10,08,01,30,1.10
2008,10,08,01,31,0.00
2008,10,08,01,32,0.90
2008,10,08,01,33,0.10
2008,10,08,01,34,0.10
2008,10,08,01,35,0.60
2008,10,08,01,36,0.30
2008,10,08,01,37,0.60
2008,10,08,01,38,0.30
2008,10,08,01,39,0.00
2008,10,08,01,40,0.00
2008,10,08,01,41,0.00
2008,10,08,01,42,0.00
2008,10,08,01,43,0.30
2008,10,08,01,44,0.60
2008,10,08,01,45,1.20
2008,10,08,01,46,0.30
2008,10,08,01,47,1.00
2008,10,08,01,48,0.40
2008,10,08,01,49,0.40
2008,10,08,01,50,0.80
2008,10,08,01,51,1.80
2008,10,08,01,52,2.30
2008,10,08,01,53,1.20
2008,10,08,01,54,0.50
2008,10,08,01,55,1.10
2008,10,08,01,56,0.70
2008,10,08,01,57,0.50
2008,10,08,01,58,0.20
2008,10,08,01,59,1.50
2008,10,08,02,00,1.60
2008,10,08,02,01,1.20
2008,10,08,02,02,0.10
2008,10,08,02,03,0.00
2008,10,08,02,04,0.10
2008,10,08,02,05,0.90
2008,10,08,02,06,0.20
2008,10,08,02,07,0.00
2008,10,08,02,08,0.00
2008,10,08,02,09,0.80
2008,10,08,02,10,1.80
2008,10,08,02,11,2.30
2008,10,08,02,12,2.40
2008,10,08,02,13,1.60
2008,10,08,02,14,0.30
2008,10,08,02,15,0.80
2008,10,08,02,16,1.30
2008,10,08,02,17,0.80
2008,10,08,02,18,1.40
2008,10,08,02,19,1.40
2008,10,08,02,20,1.80
2008,10,08,02,21,0.40
2008,10,08,02,22,0.80
2008,10,08,02,23,0.60
2008,10,08,02,24,0.80
2008,10,08,02,25,1.40
2008,10,08,02,26,0.30
2008,10,08,02,27,0.20
2008,10,08,02,28,1.20
2008,10,08,02,29,3.00
2008,10,08,02,30,2.30
2008,10,08,02,31,1.40
2008,10,08,02,32,0.60
2008,10,08,02,33,0.20
2008,10,08,02,34,0.20
2008,10,08,02,35,0.60
2008,10,08,02,36,0.30
2008,10,08,02,37,0.30
2008,10,08,02,38,0.00
2008,10,08,02,39,0.00
2008,10,08,02,40,0.00
2008,10,08,02,41,0.00
2008,10,08,02,42,0.00
2008,10,08,02,43,0.00
2008,10,08,02,44,0.00
2008,10,08,02,45,0.00
2008,10,08,02,46,0.00
2008,10,08,02,47,0.00
2008,10,08,02,48,0.00
2008,10,08,02,49,0.00
2008,10,08,02,50,0.00
2008,10,08,02,51,0.00
2008,10,08,02,52,0.90
2008,10,08,02,53,0.30
2008,10,08,02,54,0.70
2008,10,08,02,55,0.00
2008,10,08,02,56,0.00
2008,10,08,02,57,0.30
2008,10,08,02,58,0.90
2008,10,08,02,59,0.10
2008,10,08,03,00,0.00
2008,10,08,03,01,0.00
2008,10,08,03,02,0.00
2008,10,08,03,03,0.00
2008,10,08,03,04,0.00
2008,10,08,03,05,0.80
2008,10,08,03,06,0.40
2008,10,08,03,07,0.10
2008,10,08,03,08,0.90
2008,10,08,03,09,0.90
2008,10,08,03,10,1.00
2008,10,08,03,11,1.90
2008,10,08,03,12,1.50
2008,10,08,03,13,0.70
2008,10,08,03,14,0.00
2008,10,08,03,15,0.10
2008,10,08,03,16,0.00
2008,10,08,03,17,0.40
2008,10,08,03,18,0.00
2008,10,08,03,19,0.00
2008,10,08,03,20,0.90
2008,10,08,03,21,1.60
2008,10,08,03,22,0.90
2008,10,08,03,23,1.00
2008,10,08,03,24,0.80
2008,10,08,03,25,0.40
2008,10,08,03,26,0.20
2008,10,08,03,27,0.30
2008,10,08,03,28,0.40
2008,10,08,03,29,1.60
2008,10,08,03,30,2.40
2008,10,08,03,31,1.60
2008,10,08,03,32,1.00
2008,10,08,03,33,0.50
2008,10,08,03,34,0.10
2008,10,08,03,35,1.30
2008,10,08,03,36,0.30
2008,10,08,03,37,1.40
2008,10,08,03,38,0.30
2008,10,08,03,39,0.20
2008,10,08,03,40,0.90
2008,10,08,03,41,0.20
2008,10,08,03,42,0.20
2008,10,08,03,43,0.10
2008,10,08,03,44,0.10
2008,10,08,03,45,0.00
2008,10,08,03,46,0.00
2008,10,08,03,47,0.30
2008,10,08,03,48,0.80
2008,10,08,03,49,0.00
2008,10,08,03,50,0.30
2008,10,08,03,51,0.00
2008,10,08,03,52,0.00
2008,10,08,03,53,0.00
2008,10,08,03,54,0.00
2008,10,08,03,55,0.00
2008,10,08,03,56,0.00
2008,10,08,03,57,0.00
2008,10,08,03,58,0.00
2008,10,08,03,59,0.00
2008,10,08,04,00,0.00
2008,10,08,04,01,0.00
2008,10,08,04,02,0.70
2008,10,08,04,03,0.10
2008,10,08,04,04,2.00
2008,10,08,04,05,0.30
2008,10,08,04,06,0.10
2008,10,08,04,07,0.40
2008,10,08,04,08,0.30
2008,10,08,04,09,0.20
2008,10,08,04,10,0.20
2008,10,08,04,11,0.30
2008,10,08,04,12,2.30
2008,10,08,04,13,2.60
2008,10,08,04,14,2.30
2008,10,08,04,15,1.30
2008,10,08,04,16,1.50
2008,10,08,04,17,0.10
2008,10,08,04,18,0.30
2008,10,08,04,19,0.50
2008,10,08,04,20,0.00
2008,10,08,04,21,0.10
2008,10,08,04,22,0.90
2008,10,08,04,23,0.30
2008,10,08,04,24,0.20
2008,10,08,04,25,0.70
2008,10,08,04,26,0.80
2008,10,08,04,27,1.20
2008,10,08,04,28,0.90
2008,10,08,04,29,0.80
2008,10,08,04,30,0.90
2008,10,08,04,31,0.40
2008,10,08,04,32,0.10
2008,10,08,04,33,0.00
2008,10,08,04,34,0.00
2008,10,08,04,35,0.00
2008,10,08,04,36,0.00
2008,10,08,04,37,0.00
2008,10,08,04,38,0.40
2008,10,08,04,39,0.90
2008,10,08,04,40,0.30
2008,10,08,04,41,0.00
2008,10,08,04,42,0.00
2008,10,08,04,43,0.00
2008,10,08,04,44,0.00
2008,10,08,04,45,0.00
2008,10,08,04,46,0.00
2008,10,08,04,47,0.00
2008,10,08,04,48,0.30
2008,10,08,04,49,0.40
2008,10,08,04,50,1.20
2008,10,08,04,51,0.70
2008,10,08,04,52,0.40
2008,10,08,04,53,1.50
2008,10,08,04,54,0.70
2008,10,08,04,55,0.30
2008,10,08,04,56,0.30
2008,10,08,04,57,1.30
2008,10,08,04,58,1.10
2008,10,08,04,59,1.90
2008,10,08,05,00,1.00
2008,10,08,05,01,1.30
2008,10,08,05,02,1.10
2008,10,08,05,03,2.10
2008,10,08,05,04,2.40
2008,10,08,05,05,0.80
2008,10,08,05,06,1.20
2008,10,08,05,07,0.60
2008,10,08,05,08,0.30
2008,10,08,05,09,0.80
2008,10,08,05,10,0.30
2008,10,08,05,11,0.10
2008,10,08,05,12,1.40
2008,10,08,05,13,0.20
2008,10,08,05,14,0.00
2008,10,08,05,15,0.30
2008,10,08,05,16,0.10
2008,10,08,05,17,0.00
2008,10,08,05,18,0.00
2008,10,08,05,19,0.10
2008,10,08,05,20,0.40
2008,10,08,05,21,0.10
2008,10,08,05,22,0.00
2008,10,08,05,23,0.00
2008,10,08,05,24,0.00
2008,10,08,05,25,1.10
2008,10,08,05,26,0.10
2008,10,08,05,27,0.00
2008,10,08,05,28,0.00
2008,10,08,05,29,0.00
2008,10,08,05,30,0.00
2008,10,08,05,31,0.00
2008,10,08,05,32,0.50
2008,10,08,05,33,0.20
2008,10,08,05,34,0.10
2008,10,08,05,35,0.00
2008,10,08,05,36,0.30
2008,10,08,05,37,0.30
2008,10,08,05,38,1.90
2008,10,08,05,39,0.30
2008,10,08,05,40,0.20
2008,10,08,05,41,0.00
2008,10,08,05,42,0.50
2008,10,08,05,43,1.90
2008,10,08,05,44,0.00
2008,10,08,05,45,0.00
2008,10,08,05,46,0.00
2008,10,08,05,47,0.20
2008,10,08,05,48,0.60
2008,10,08,05,49,0.00
2008,10,08,05,50,1.30
2008,10,08,05,51,0.50
2008,10,08,05,52,0.30
2008,10,08,05,53,0.30
2008,10,08,05,54,0.10
2008,10,08,05,55,0.00
2008,10,08,05,56,3.00
2008,10,08,05,57,1.60
2008,10,08,05,58,1.80
2008,10,08,05,59,0.40
2008,10,08,06,00,0.00
2008,10,08,06,01,0.60
2008,10,08,06,02,0.30
2008,10,08,06,03,0.00
2008,10,08,06,04,0.10
2008,10,08,06,05,1.00
2008,10,08,06,06,0.00
2008,10,08,06,07,0.10
2008,10,08,06,08,0.10
2008,10,08,06,09,0.00
2008,10,08,06,10,0.00
2008,10,08,06,11,2.90
2008,10,08,06,12,2.40
2008,10,08,06,13,1.30
2008,10,08,06,14,0.70
2008,10,08,06,15,0.00
2008,10,08,06,16,0.00
2008,10,08,06,17,0.00
2008,10,08,06,18,0.40
2008,10,08,06,19,0.10
2008,10,08,06,20,0.00
2008,10,08,06,21,0.50
2008,10,08,06,22,0.40
2008,10,08,06,23,1.20
2008,10,08,06,24,0.50
2008,10,08,06,25,0.30
2008,10,08,06,26,0.60
2008,10,08,06,27,0.00
2008,10,08,06,28,0.60
2008,10,08,06,29,0.10
2008,10,08,06,30,0.00
2008,10,08,06,31,0.00
2008,10,08,06,32,0.70
2008,10,08,06,33,0.30
2008,10,08,06,34,0.00
2008,10,08,06,35,0.50
2008,10,08,06,36,0.40
2008,10,08,06,37,1.50
2008,10,08,06,38,0.10
2008,10,08,06,39,0.20
2008,10,08,06,40,0.00
2008,10,08,06,41,0.00
2008,10,08,06,42,0.00
2008,10,08,06,43,0.20
2008,10,08,06,44,0.00
2008,10,08,06,45,0.30
2008,10,08,06,46,0.90
2008,10,08,06,47,0.30
2008,10,08,06,48,0.10
2008,10,08,06,49,0.80
2008,10,08,06,50,0.80
2008,10,08,06,51,1.40
2008,10,08,06,52,1.20
2008,10,08,06,53,2.70
2008,10,08,06,54,0.60
2008,10,08,06,55,1.00
2008,10,08,06,56,0.30
2008,10,08,06,57,0.80
2008,10,08,06,58,0.60
2008,10,08,06,59,0.10
2008,10,08,07,00,0.10
2008,10,08,07,01,0.00
2008,10,08,07,02,1.20
2008,10,08,07,03,1.40
2008,10,08,07,04,1.30
2008,10,08,07,05,1.30
2008,10,08,07,06,2.20
2008,10,08,07,07,1.50
2008,10,08,07,08,0.30
2008,10,08,07,09,1.40
2008,10,08,07,10,0.40
2008,10,08,07,11,0.50
2008,10,08,07,12,1.90
2008,10,08,07,13,0.70
2008,10,08,07,14,1.20
2008,10,08,07,15,2.30
2008,10,08,07,16,1.80
2008,10,08,07,17,1.40
2008,10,08,07,18,0.30
2008,10,08,07,19,0.60
2008,10,08,07,20,2.10
2008,10,08,07,21,2.10
2008,10,08,07,22,1.80
2008,10,08,07,23,2.20
2008,10,08,07,24,1.80
2008,10,08,07,25,1.90
2008,10,08,07,26,0.00
2008,10,08,07,27,0.30
2008,10,08,07,28,0.20
2008,10,08,07,29,0.00
2008,10,08,07,30,0.00
2008,10,08,07,31,0.80
2008,10,08,07,32,0.10
2008,10,08,07,33,1.00
2008,10,08,07,34,0.60
2008,10,08,07,35,0.80
2008,10,08,07,36,0.50
2008,10,08,07,37,0.00
2008,10,08,07,38,0.00
2008,10,08,07,39,0.00
2008,10,08,07,40,0.20
2008,10,08,07,41,0.30
2008,10,08,07,42,0.70
2008,10,08,07,43,0.50
2008,10,08,07,44,0.50
2008,10,08,07,45,0.60
2008,10,08,07,46,1.90
2008,10,08,07,47,1.90
2008,10,08,07,48,0.10
2008,10,08,07,49,3.10
2008,10,08,07,50,3.20
2008,10,08,07,51,2.50
2008,10,08,07,52,1.80
2008,10,08,07,53,0.90
2008,10,08,07,54,1.90
2008,10,08,07,55,2.30
2008,10,08,07,56,1.00
2008,10,08,07,57,0.10
2008,10,08,07,58,0.90
2008,10,08,07,59,0.00
2008,10,08,08,00,0.50
2008,10,08,08,01,0.40
2008,10,08,08,02,0.10
2008,10,08,08,03,0.10
2008,10,08,08,04,0.00
2008,10,08,08,05,0.00
2008,10,08,08,06,1.00
2008,10,08,08,07,0.50
2008,10,08,08,08,0.00
2008,10,08,08,09,0.00
2008,10,08,08,10,0.50
2008,10,08,08,11,0.10
2008,10,08,08,12,0.20
2008,10,08,08,13,0.00
2008,10,08,08,14,0.00
2008,10,08,08,15,0.00
2008,10,08,08,16,0.00
2008,10,08,08,17,0.00
2008,10,08,08,18,0.00
2008,10,08,08,19,0.00
2008,10,08,08,20,0.00
2008,10,08,08,21,0.00
2008,10,08,08,22,0.10
2008,10,08,08,23,2.10
2008,10,08,08,24,2.30
2008,10,08,08,25,1.50
2008,10,08,08,26,2.10
2008,10,08,08,27,0.50
2008,10,08,08,28,0.00
2008,10,08,08,29,0.00
2008,10,08,08,30,0.00
2008,10,08,08,31,0.00
2008,10,08,08,32,0.00
2008,10,08,08,33,0.30
2008,10,08,08,34,3.20
2008,10,08,08,35,2.60
2008,10,08,08,36,2.20
2008,10,08,08,37,2.10
2008,10,08,08,38,0.90
2008,10,08,08,39,1.60
2008,10,08,08,40,1.40
2008,10,08,08,41,1.50
2008,10,08,08,42,1.50
2008,10,08,08,43,2.30
2008,10,08,08,44,0.50
2008,10,08,08,45,0.60
2008,10,08,08,46,0.00
2008,10,08,08,47,0.00
2008,10,08,08,48,0.00
2008,10,08,08,49,0.00
2008,10,08,08,50,0.60
2008,10,08,08,51,0.30
2008,10,08,08,52,0.10
2008,10,08,08,53,1.30
2008,10,08,08,54,4.00
2008,10,08,08,55,2.10
2008,10,08,08,56,2.50
2008,10,08,08,57,5.00
2008,10,08,08,58,3.50
2008,10,08,08,59,3.80
2008,10,08,09,00,3.90
2008,10,08,09,01,3.50
2008,10,08,09,02,1.60
2008,10,08,09,03,1.60
2008,10,08,09,04,3.20
2008,10,08,09,05,2.50
2008,10,08,09,06,0.30
2008,10,08,09,07,0.00
2008,10,08,09,08,0.00
2008,10,08,09,09,0.00
2008,10,08,09,10,0.00
2008,10,08,09,11,0.00
2008,10,08,09,12,0.00
2008,10,08,09,13,0.20
2008,10,08,09,14,0.00
2008,10,08,09,15,2.10
2008,10,08,09,16,2.50
2008,10,08,09,17,1.50
2008,10,08,09,18,0.80
2008,10,08,09,19,0.00
2008,10,08,09,20,0.20
2008,10,08,09,21,0.00
2008,10,08,09,22,0.90
2008,10,08,09,23,0.10
2008,10,08,09,24,1.50
2008,10,08,09,25,1.90
2008,10,08,09,26,0.60
2008,10,08,09,27,0.90
2008,10,08,09,28,0.30
2008,10,08,09,29,0.10
2008,10,08,09,30,0.20
2008,10,08,09,31,2.10
2008,10,08,09,32,3.50
2008,10,08,09,33,0.10
2008,10,08,09,34,0.40
2008,10,08,09,35,0.20
2008,10,08,09,36,0.50
2008,10,08,09,37,0.20
2008,10,08,09,38,0.60
2008,10,08,09,39,1.60
2008,10,08,09,40,1.60
2008,10,08,09,41,0.50
2008,10,08,09,42,0.00
2008,10,08,09,43,2.20
2008,10,08,09,44,0.10
2008,10,08,09,45,1.40
2008,10,08,09,46,2.30
2008,10,08,09,47,2.10
2008,10,08,09,48,0.50
2008,10,08,09,49,1.80
2008,10,08,09,50,0.60
2008,10,08,09,51,1.70
2008,10,08,09,52,3.30
2008,10,08,09,53,2.30
2008,10,08,09,54,0.80
2008,10,08,09,55,3.10
2008,10,08,09,56,0.80
2008,10,08,09,57,0.10
2008,10,08,09,58,1.90
2008,10,08,09,59,4.30
2008,10,08,10,00,3.10
2008,10,08,10,01,10.30
2008,10,08,10,02,9.50
2008,10,08,10,03,6.20
2008,10,08,10,04,7.30
2008,10,08,10,05,5.20
2008,10,08,10,06,3.20
2008,10,08,10,07,6.60
2008,10,08,10,08,6.00
2008,10,08,10,09,6.80
2008,10,08,10,10,5.00
2008,10,08,10,11,7.50
2008,10,08,10,12,8.90
2008,10,08,10,13,7.80
2008,10,08,10,14,6.00
2008,10,08,10,15,7.00
2008,10,08,10,16,10.50
2008,10,08,10,17,4.10
2008,10,08,10,18,3.10
2008,10,08,10,19,2.50
2008,10,08,10,20,3.60
2008,10,08,10,21,8.80
2008,10,08,10,22,6.30
2008,10,08,10,23,6.00
2008,10,08,10,24,4.30
2008,10,08,10,25,10.40
2008,10,08,10,26,8.80
2008,10,08,10,27,10.00
2008,10,08,10,28,8.30
2008,10,08,10,29,6.40
2008,10,08,10,30,4.10
2008,10,08,10,31,4.70
2008,10,08,10,32,4.40
2008,10,08,10,33,3.70
2008,10,08,10,34,2.00
2008,10,08,10,35,0.20
2008,10,08,10,36,1.20
2008,10,08,10,37,3.00
2008,10,08,10,38,0.90
2008,10,08,10,39,4.10
2008,10,08,10,40,3.00
2008,10,08,10,41,1.40
2008,10,08,10,42,1.00
2008,10,08,10,43,1.60
2008,10,08,10,44,4.50
2008,10,08,10,45,8.60
2008,10,08,10,46,7.20
2008,10,08,10,47,10.50
2008,10,08,10,48,12.00
2008,10,08,10,49,8.10
2008,10,08,10,50,3.60
2008,10,08,10,51,4.10
2008,10,08,10,52,10.70
2008,10,08,10,53,9.30
2008,10,08,10,54,6.00
2008,10,08,10,55,6.50
2008,10,08,10,56,10.10
2008,10,08,10,57,8.70
2008,10,08,10,58,5.40
2008,10,08,10,59,3.30
2008,10,08,11,00,6.60
2008,10,08,11,01,11.00
2008,10,08,11,02,11.50
2008,10,08,11,03,5.40
2008,10,08,11,04,8.00
2008,10,08,11,05,8.40
2008,10,08,11,06,8.10
2008,10,08,11,07,4.00
2008,10,08,11,08,7.90
2008,10,08,11,09,7.90
2008,10,08,11,10,8.10
2008,10,08,11,11,5.20
2008,10,08,11,12,4.00
2008,10,08,11,13,5.30
2008,10,08,11,14,6.60
2008,10,08,11,15,8.10
2008,10,08,11,16,6.40
2008,10,08,11,17,6.50
2008,10,08,11,18,7.60
2008,10,08,11,19,7.60
2008,10,08,11,20,10.40
2008,10,08,11,21,7.10
2008,10,08,11,22,9.30
2008,10,08,11,23,7.50
2008,10,08,11,24,10.60
2008,10,08,11,25,9.30
2008,10,08,11,26,8.20
2008,10,08,11,27,3.20
2008,10,08,11,28,3.70
2008,10,08,11,29,4.90
2008,10,08,11,30,10.50
2008,10,08,11,31,10.60
2008,10,08,11,32,9.00
2008,10,08,11,33,6.80
2008,10,08,11,34,8.70
2008,10,08,11,35,7.70
2008,10,08,11,36,5.20
2008,10,08,11,37,3.90
2008,10,08,11,38,2.60
2008,10,08,11,39,6.80
2008,10,08,11,40,5.50
2008,10,08,11,41,6.40
2008,10,08,11,42,7.20
2008,10,08,11,43,6.00
2008,10,08,11,44,8.70
2008,10,08,11,45,6.20
2008,10,08,11,46,8.70
2008,10,08,11,47,5.70
2008,10,08,11,48,10.30
2008,10,08,11,49,14.20
2008,10,08,11,50,1.70
2008,10,08,11,51,7.20
2008,10,08,11,52,5.10
2008,10,08,11,53,7.30
2008,10,08,11,54,5.20
2008,10,08,11,55,5.40
2008,10,08,11,56,7.90
2008,10,08,11,57,6.40
2008,10,08,11,58,8.30
2008,10,08,11,59,6.10
2008,10,08,12,00,4.00
2008,10,08,12,01,7.10
2008,10,08,12,02,6.90
2008,10,08,12,03,10.40
2008,10,08,12,04,8.60
2008,10,08,12,05,7.70
2008,10,08,12,06,9.50
2008,10,08,12,07,7.20
2008,10,08,12,08,5.50
2008,10,08,12,09,7.80
2008,10,08,12,10,5.50
2008,10,08,12,11,4.20
2008,10,08,12,12,6.70
2008,10,08,12,13,4.30
2008,10,08,12,14,12.50
2008,10,08,12,15,11.40
2008,10,08,12,16,7.40
2008,10,08,12,17,4.00
2008,10,08,12,18,3.90
2008,10,08,12,19,5.30
2008,10,08,12,20,9.80
2008,10,08,12,21,6.20
2008,10,08,12,22,8.60
2008,10,08,12,23,10.20
2008,10,08,12,24,7.20
2008,10,08,12,25,6.40
2008,10,08,12,26,3.70
2008,10,08,12,27,8.00
2008,10,08,12,28,6.40
2008,10,08,12,29,3.00
2008,10,08,12,30,7.40
2008,10,08,12,31,7.10
2008,10,08,12,32,2.10
2008,10,08,12,33,6.80
2008,10,08,12,34,11.00
2008,10,08,12,35,9.50
2008,10,08,12,36,8.50
2008,10,08,12,37,8.10
2008,10,08,12,38,8.70
2008,10,08,12,39,9.80
2008,10,08,12,40,7.70
2008,10,08,12,41,7.60
2008,10,08,12,42,8.20
2008,10,08,12,43,6.80
2008,10,08,12,44,5.40
2008,10,08,12,45,11.10
2008,10,08,12,46,5.20
2008,10,08,12,47,8.40
2008,10,08,12,48,9.70
2008,10,08,12,49,10.00
2008,10,08,12,50,10.90
2008,10,08,12,51,3.70
2008,10,08,12,52,4.50
2008,10,08,12,53,8.20
2008,10,08,12,54,10.30
2008,10,08,12,55,6.50
2008,10,08,12,56,12.00
2008,10,08,12,57,13.50
2008,10,08,12,58,7.00
2008,10,08,12,59,6.00
2008,10,08,13,00,4.60
2008,10,08,13,01,3.10
2008,10,08,13,02,4.40
2008,10,08,13,03,4.70
2008,10,08,13,04,6.20
2008,10,08,13,05,5.50
2008,10,08,13,06,10.00
2008,10,08,13,07,10.80
2008,10,08,13,08,6.70
2008,10,08,13,09,8.20
2008,10,08,13,10,7.40
2008,10,08,13,11,12.10
2008,10,08,13,12,12.70
2008,10,08,13,13,9.20
2008,10,08,13,14,11.30
2008,10,08,13,15,9.70
2008,10,08,13,16,8.40
2008,10,08,13,17,5.50
2008,10,08,13,18,8.50
2008,10,08,13,19,4.60
2008,10,08,13,20,7.50
2008,10,08,13,21,5.80
2008,10,08,13,22,5.50
2008,10,08,13,23,6.20
2008,10,08,13,24,6.60
2008,10,08,13,25,7.50
2008,10,08,13,26,7.10
2008,10,08,13,27,5.20
2008,10,08,13,28,7.20
2008,10,08,13,29,10.90
2008,10,08,13,30,12.30
2008,10,08,13,31,9.00
2008,10,08,13,32,7.30
2008,10,08,13,33,8.60
2008,10,08,13,34,8.00
2008,10,08,13,35,9.90
2008,10,08,13,36,8.60
2008,10,08,13,37,8.00
2008,10,08,13,38,15.20
2008,10,08,13,39,11.20
2008,10,08,13,40,7.90
2008,10,08,13,41,9.50
2008,10,08,13,42,12.50
2008,10,08,13,43,7.60
2008,10,08,13,44,7.70
2008,10,08,13,45,10.00
2008,10,08,13,46,7.40
2008,10,08,13,47,12.20
2008,10,08,13,48,14.20
2008,10,08,13,49,8.50
2008,10,08,13,50,3.00
2008,10,08,13,51,8.10
2008,10,08,13,52,7.50
2008,10,08,13,53,10.60
2008,10,08,13,54,9.80
2008,10,08,13,55,6.60
2008,10,08,13,56,7.80
2008,10,08,13,57,8.50
2008,10,08,13,58,9.20
2008,10,08,13,59,7.20
2008,10,08,14,00,5.20
2008,10,08,14,01,5.60
2008,10,08,14,02,7.40
2008,10,08,14,03,7.00
2008,10,08,14,04,8.80
2008,10,08,14,05,13.10
2008,10,08,14,06,10.00
2008,10,08,14,07,7.60
2008,10,08,14,08,7.00
2008,10,08,14,09,8.70
2008,10,08,14,10,10.80
2008,10,08,14,11,9.50
2008,10,08,14,12,8.20
2008,10,08,14,13,3.60
2008,10,08,14,14,5.80
2008,10,08,14,15,6.10
2008,10,08,14,16,6.80
2008,10,08,14,17,8.60
2008,10,08,14,18,12.30
2008,10,08,14,19,10.50
2008,10,08,14,20,8.00
2008,10,08,14,21,11.80
2008,10,08,14,22,14.50
2008,10,08,14,23,14.40
2008,10,08,14,24,9.70
2008,10,08,14,25,9.20
2008,10,08,14,26,15.70
2008,10,08,14,27,12.00
2008,10,08,14,28,10.20
2008,10,08,14,29,10.60
2008,10,08,14,30,6.90
2008,10,08,14,31,5.00
2008,10,08,14,32,8.00
2008,10,08,14,33,10.10
2008,10,08,14,34,6.40
2008,10,08,14,35,7.30
2008,10,08,14,36,8.80
2008,10,08,14,37,6.60
2008,10,08,14,38,4.90
2008,10,08,14,39,7.90
2008,10,08,14,40,5.30
2008,10,08,14,41,6.70
2008,10,08,14,42,7.90
2008,10,08,14,43,7.20
2008,10,08,14,44,10.60
2008,10,08,14,45,10.60
2008,10,08,14,46,6.40
2008,10,08,14,47,5.50
2008,10,08,14,48,12.40
2008,10,08,14,49,7.80
2008,10,08,14,50,4.40
2008,10,08,14,51,4.20
2008,10,08,14,52,6.30
2008,10,08,14,53,5.90
2008,10,08,14,54,7.00
2008,10,08,14,55,6.50
2008,10,08,14,56,6.00
2008,10,08,14,57,9.30
2008,10,08,14,58,6.40
2008,10,08,14,59,7.10
2008,10,08,15,00,7.40
2008,10,08,15,01,11.60
2008,10,08,15,02,9.10
2008,10,08,15,03,9.90
2008,10,08,15,04,10.50
2008,10,08,15,05,10.10
2008,10,08,15,06,5.50
2008,10,08,15,07,7.50
2008,10,08,15,08,8.20
2008,10,08,15,09,1.70
2008,10,08,15,10,5.60
2008,10,08,15,11,4.40
2008,10,08,15,12,2.70
2008,10,08,15,13,3.80
2008,10,08,15,14,6.10
2008,10,08,15,15,4.10
2008,10,08,15,16,6.80
2008,10,08,15,17,3.70
2008,10,08,15,18,9.50
2008,10,08,15,19,5.60
2008,10,08,15,20,7.80
2008,10,08,15,21,7.40
2008,10,08,15,22,5.80
2008,10,08,15,23,5.50
2008,10,08,15,24,5.10
2008,10,08,15,25,7.30
2008,10,08,15,26,6.20
2008,10,08,15,27,6.90
2008,10,08,15,28,7.90
2008,10,08,15,29,7.50
2008,10,08,15,30,5.80
2008,10,08,15,31,7.00
2008,10,08,15,32,8.30
2008,10,08,15,33,4.90
2008,10,08,15,34,6.20
2008,10,08,15,35,3.80
2008,10,08,15,36,5.20
2008,10,08,15,37,2.50
2008,10,08,15,38,5.80
2008,10,08,15,39,3.30
2008,10,08,15,40,3.40
2008,10,08,15,41,6.10
2008,10,08,15,42,7.30
2008,10,08,15,43,4.90
2008,10,08,15,44,2.70
2008,10,08,15,45,5.40
2008,10,08,15,46,3.70
2008,10,08,15,47,3.50
2008,10,08,15,48,5.40
2008,10,08,15,49,2.60
2008,10,08,15,50,2.30
2008,10,08,15,51,5.40
2008,10,08,15,52,3.50
2008,10,08,15,53,5.50
2008,10,08,15,54,4.10
2008,10,08,15,55,3.50
2008,10,08,15,56,2.10
2008,10,08,15,57,0.70
2008,10,08,15,58,2.90
2008,10,08,15,59,2.40
2008,10,08,16,00,3.40
2008,10,08,16,01,3.80
2008,10,08,16,02,0.60
2008,10,08,16,03,0.00
2008,10,08,16,04,2.00
2008,10,08,16,05,2.70
2008,10,08,16,06,6.10
2008,10,08,16,07,5.70
2008,10,08,16,08,5.90
2008,10,08,16,09,4.70
2008,10,08,16,10,6.80
2008,10,08,16,11,3.70
2008,10,08,16,12,5.30
2008,10,08,16,13,6.30
2008,10,08,16,14,6.40
2008,10,08,16,15,6.20
2008,10,08,16,16,4.80
2008,10,08,16,17,4.20
2008,10,08,16,18,5.80
2008,10,08,16,19,4.30
2008,10,08,16,20,5.40
2008,10,08,16,21,5.60
2008,10,08,16,22,4.50
2008,10,08,16,23,4.70
2008,10,08,16,24,5.30
2008,10,08,16,25,5.80
2008,10,08,16,26,5.70
2008,10,08,16,27,5.10
2008,10,08,16,28,5.20
2008,10,08,16,29,4.20
2008,10,08,16,30,4.70
2008,10,08,16,31,5.80
2008,10,08,16,32,5.10
2008,10,08,16,33,5.60
2008,10,08,16,34,4.90
2008,10,08,16,35,2.90
2008,10,08,16,36,3.60
2008,10,08,16,37,4.80
2008,10,08,16,38,3.60
2008,10,08,16,39,3.00
2008,10,08,16,40,3.00
2008,10,08,16,41,1.90
2008,10,08,16,42,4.20
2008,10,08,16,43,4.10
2008,10,08,16,44,3.40
2008,10,08,16,45,4.20
2008,10,08,16,46,4.30
2008,10,08,16,47,4.70
2008,10,08,16,48,4.60
2008,10,08,16,49,5.70
2008,10,08,16,50,6.40
2008,10,08,16,51,5.10
2008,10,08,16,52,3.00
2008,10,08,16,53,4.20
2008,10,08,16,54,4.60
2008,10,08,16,55,3.40
2008,10,08,16,56,1.70
2008,10,08,16,57,1.90
2008,10,08,16,58,2.50
2008,10,08,16,59,1.50
2008,10,08,17,00,1.60
2008,10,08,17,01,2.70
2008,10,08,17,02,5.00
2008,10,08,17,03,3.90
2008,10,08,17,04,3.60
2008,10,08,17,05,3.00
2008,10,08,17,06,1.40
2008,10,08,17,07,1.40
2008,10,08,17,08,0.90
2008,10,08,17,09,1.90
2008,10,08,17,10,1.50
2008,10,08,17,11,0.20
2008,10,08,17,12,1.70
2008,10,08,17,13,0.80
2008,10,08,17,14,0.30
2008,10,08,17,15,0.00
2008,10,08,17,16,0.00
2008,10,08,17,17,0.20
2008,10,08,17,18,1.90
2008,10,08,17,19,2.10
2008,10,08,17,20,0.20
2008,10,08,17,21,0.00
2008,10,08,17,22,0.00
2008,10,08,17,23,0.00
2008,10,08,17,24,0.00
2008,10,08,17,25,0.00
2008,10,08,17,26,0.00
2008,10,08,17,27,0.00
2008,10,08,17,28,0.00
2008,10,08,17,29,0.00
2008,10,08,17,30,0.00
2008,10,08,17,31,0.00
2008,10,08,17,32,0.00
2008,10,08,17,33,0.00
2008,10,08,17,34,0.00
2008,10,08,17,35,0.00
2008,10,08,17,36,0.00
2008,10,08,17,37,0.00
2008,10,08,17,38,0.00
2008,10,08,17,39,0.00
2008,10,08,17,40,0.00
2008,10,08,17,41,0.00
2008,10,08,17,42,0.00
2008,10,08,17,43,0.00
2008,10,08,17,44,0.00
2008,10,08,17,45,0.00
2008,10,08,17,46,0.00
2008,10,08,17,47,0.00
2008,10,08,17,48,0.00
2008,10,08,17,49,0.00
2008,10,08,17,50,0.00
2008,10,08,17,51,0.10
2008,10,08,17,52,0.90
2008,10,08,17,53,0.20
2008,10,08,17,54,2.20
2008,10,08,17,55,2.10
2008,10,08,17,56,1.30
2008,10,08,17,57,0.00
2008,10,08,17,58,0.00
2008,10,08,17,59,1.00
2008,10,08,18,00,0.50
2008,10,08,18,01,0.20
2008,10,08,18,02,0.40
2008,10,08,18,03,0.00